QPF
0.00 0.00 0.00 0.01 0.03 0.03 0.03 0.02 0.01 0.01 0.00 0.00 0.00 0.01 0.01 0.02 0.01 0.01 0.00 0.00 0.00 0.00 0.00 0.01 0.01 0.02 0.03 0.03 0.02 0.03 0.04 0.04 0.03 0.03 0.03 0.03 0.04 0.03 0.04 0.04 0.06 0.08 0.07
0.00 0.00 0.00 0.01 0.01 0.02 0.04 0.03 0.02 0.01 0.01 0.00 0.00 0.00 0.01 0.02 0.02 0.01 0.00 0.00 0.00 0.00 0.00 0.00 0.01 0.01 0.02 0.02 0.03 0.04 0.05 0.04 0.03 0.03 0.04 0.04 0.05 0.06 0.05 0.05 0.05 0.08 0.07
0.00 0.00 0.01 0.01 0.01 0.01 0.01 0.02 0.02 0.02 0.01 0.01 0.00 0.00 0.00 0.01 0.02 0.02 0.01 0.01 0.00 0.01 0.01 0.01 0.00 0.01 0.02 0.02 0.03 0.02 0.05 0.05 0.03 0.03 0.04 0.05 0.05 0.06 0.06 0.05 0.04 0.05 0.06
0.00 0.01 0.01 0.01 0.01 0.00 0.01 0.01 0.01 0.01 0.01 0.01 0.01 0.00 0.00 0.01 0.01 0.02 0.02 0.01 0.00 0.00 0.01 0.00 0.01 0.01 0.01 0.01 0.01 0.01 0.03 0.05 0.04 0.03 0.03 0.04 0.04 0.04 0.05 0.04 0.03 0.03 0.04
0.01 0.01 0.01 0.01 0.01 0.01 0.01 0.01 0.00 0.00 0.01 0.00 0.00 0.00 0.00 0.00 0.00 0.01 0.01 0.01 0.00 0.00 0.00 0.00 0.01 0.01 0.01 0.01 0.01 0.01 0.03 0.04 0.05 0.04 0.03 0.03 0.04 0.03 0.04 0.04 0.03 0.02 0.03
0.01 0.01 0.01 0.01 0.01 0.01 0.02 0.01 0.00 0.00 0.00 0.00 0.00 0.00 0.00 0.00 0.01 0.01 0.02 0.01 0.00 0.01 0.00 0.01 0.01 0.01 0.01 0.01 0.02 0.01 0.01 0.02 0.03 0.03 0.03 0.03 0.04 0.04 0.03 0.04 0.04 0.03 0.02
0.00 0.00 0.00 0.00 0.00 0.01 0.01 0.02 0.01 0.01 0.00 0.00 0.00 0.00 0.00 0.00 0.00 0.01 0.01 0.01 0.00 0.00 0.00 0.00 0.01 0.01 0.01 0.01 0.01 0.01 0.01 0.01 0.02 0.02 0.01 0.01 0.02 0.02 0.02 0.03 0.03 0.02 0.02
0.00 0.00 0.00 0.00 0.00 0.00 0.01 0.01 0.00 0.01 0.00 0.00 0.00 0.00 0.01 0.00 0.00 0.00 0.00 0.00 0.00 0.00 0.00 0.00 0.01 0.01 0.01 0.01 0.01 0.01 0.01 0.00 0.01 0.00 0.00 0.01 0.01 0.02 0.02 0.02 0.02 0.03 0.03
0.00 0.00 0.00 0.00 0.00 0.00 0.01 0.01 0.00 0.01 0.00 0.00 0.00 0.01 0.00 0.01 0.00 0.00 0.00 0.00 0.00 0.00 0.00 0.00 0.01 0.01 0.00 0.00 0.01 0.01 0.01 0.00 0.00 0.00 0.01 0.01 0.01 0.00 0.00 0.01 0.01 0.03 0.03
0.00 0.00 0.00 0.00 0.00 0.00 0.01 0.00 0.00 0.01 0.01 0.01 0.01 0.00 0.00 0.01 0.01 0.01 0.01 0.01 0.01 0.01 0.00 0.00 0.01 0.02 0.01 0.00 0.01 0.02 0.02 0.01 0.01 0.01 0.01 0.01 0.01 0.00 0.00 0.00 0.00 0.01 0.02
0.00 0.00 0.00 0.00 0.00 0.01 0.01 0.00 0.00 0.01 0.01 0.02 0.01 0.00 0.00 0.00 0.01 0.01 0.01 0.02 0.02 0.02 0.01 0.00 0.01 0.01 0.01 0.01 0.01 0.02 0.02 0.02 0.01 0.01 0.01 0.01 0.01 0.01 0.00 0.00 0.00 0.00 0.01
0.00 0.00 0.00 0.00 0.00 0.00 0.00 0.00 0.00 0.00 0.00 0.01 0.01 0.00 0.00 0.00 0.00 0.00 0.01 0.01 0.01 0.01 0.01 0.01 0.01 0.01 0.00 0.01 0.00 0.01 0.01 0.01 0.01 0.00 0.01 0.00 0.00 0.00 0.00 0.01 0.01 0.00 0.00
0.00 0.00 0.00 0.00 0.00 0.00 0.00 0.00 0.00 0.00 0.00 0.00 0.00 0.00 0.00 0.00 0.00 0.00 0.00 0.00 0.01 0.01 0.01 0.01 0.01 0.00 0.00 0.00 0.00 0.00 0.00 0.00 0.00 0.00 0.00 0.00 0.00 0.01 0.00 0.01 0.01 0.00 0.00
0.00 0.00 0.00 0.00 0.00 0.00 0.00 0.00 0.00 0.00 0.00 0.00 0.00 0.00 0.00 0.01 0.00 0.00 0.00 0.00 0.01 0.01 0.01 0.01 0.01 0.01 0.00 0.00 0.01 0.01 0.00 0.00 0.00 0.00 0.00 0.00 0.00 0.01 0.01 0.01 0.01 0.00 0.00
0.00 0.00 0.01 0.01 0.01 0.01 0.00 0.00 0.00 0.00 0.00 0.01 0.01 0.00 0.00 0.00 0.00 0.00 0.00 0.01 0.01 0.00 0.00 0.01 0.01 0.00 0.00 0.00 0.00 0.00 0.00 0.00 0.01 0.00 0.00 0.00 0.00 0.00 0.00 0.00 0.01 0.01 0.00
0.00 0.00 0.00 0.01 0.01 0.01 0.01 0.00 0.00 0.00 0.01 0.01 0.00 0.00 0.00 0.00 0.00 0.00 0.00 0.00 0.00 0.00 0.00 0.00 0.00 0.00 0.00 0.01 0.00 0.00 0.00 0.01 0.01 0.01 0.01 0.01 0.01 0.00 0.00 0.00 0.00 0.00 0.00
0.00 0.00 0.01 0.01 0.01 0.01 0.01 0.00 0.00 0.00 0.01 0.01 0.00 0.00 0.00 0.01 0.01 0.01 0.00 0.00 0.00 0.00 0.00 0.00 0.00 0.00 0.00 0.01 0.01 0.01 0.01 0.01 0.01 0.01 0.01 0.01 0.00 0.00 0.00 0.00 0.00 0.00 0.00
0.00 0.00 0.00 0.01 0.00 0.00 0.00 0.00 0.00 0.01 0.01 0.01 0.00 0.00 0.00 0.01 0.01 0.01 0.01 0.01 0.00 0.00 0.00 0.00 0.00 0.01 0.00 0.00 0.00 0.00 0.00 0.00 0.00 0.00 0.00 0.00 0.00 0.00 0.00 0.00 0.00 0.00 0.00
0.00 0.00 0.00 0.00 0.01 0.01 0.00 0.00 0.00 0.01 0.01 0.01 0.01 0.00 0.01 0.01 0.01 0.01 0.01 0.00 0.00 0.00 0.00 0.00 0.00 0.00 0.00 0.00 0.00 0.00 0.00 0.00 0.00 0.00 0.00 0.00 0.00 0.00 0.00 0.00 0.01 0.01 0.01
0.00 0.00 0.00 0.00 0.01 0.01 0.00 0.00 0.00 0.00 0.00 0.00 0.00 0.00 0.01 0.01 0.00 0.00 0.01 0.01 0.00 0.00 0.00 0.00 0.00 0.00 0.01 0.01 0.00 0.00 0.00 0.00 0.00 0.00 0.00 0.00 0.00 0.00 0.00 0.00 0.00 0.00 0.01
0.00 0.00 0.00 0.00 0.01 0.01 0.01 0.00 0.00 0.00 0.00 0.01 0.01 0.01 0.01 0.01 0.00 0.00 0.00 0.01 0.01 0.00 0.00 0.00 0.00 0.00 0.01 0.01 0.00 0.00 0.00 0.01 0.01 0.01 0.00 0.00 0.01 0.00 0.00 0.00 0.00 0.00 0.00
0.00 0.00 0.01 0.00 0.01 0.01 0.01 0.01 0.00 0.00 0.01 0.01 0.01 0.01 0.01 0.01 0.01 0.00 0.00 0.01 0.01 0.01 0.01 0.01 0.01 0.01 0.01 0.01 0.01 0.00 0.00 0.00 0.01 0.01 0.01 0.01 0.00 0.00 0.00 0.00 0.00 0.00 0.00
0.00 0.00 0.02 0.03 0.03 0.02 0.02 0.01 0.01 0.01 0.01 0.01 0.01 0.02 0.03 0.02 0.01 0.01 0.01 0.01 0.01 0.02 0.02 0.02 0.01 0.01 0.00 0.01 0.02 0.01 0.01 0.01 0.01 0.01 0.01 0.01 0.00 0.00 0.00 0.00 0.00 0.00 0.00
0.01 0.01 0.03 0.03 0.05 0.05 0.03 0.02 0.02 0.02 0.01 0.01 0.01 0.02 0.03 0.03 0.02 0.01 0.01 0.01 0.01 0.01 0.02 0.02 0.01 0.01 0.01 0.01 0.01 0.01 0.01 0.02 0.02 0.01 0.01 0.00 0.00 0.00 0.00 0.00 0.00 0.00 0.00
0.01 0.01 0.03 0.03 0.04 0.04 0.05 0.04 0.03 0.03 0.03 0.02 0.02 0.02 0.02 0.03 0.03 0.02 0.01 0.01 0.01 0.01 0.01 0.01 0.01 0.01 0.01 0.01 0.01 0.01 0.01 0.01 0.01 0.01 0.01 0.00 0.00 0.00 0.00 0.00 0.00 0.01 0.01
0.01 0.01 0.02 0.02 0.02 0.03 0.05 0.03 0.03 0.03 0.04 0.04 0.03 0.02 0.02 0.02 0.02 0.02 0.01 0.01 0.01 0.01 0.01 0.01 0.01 0.01 0.01 0.02 0.01 0.01 0.01 0.01 0.01 0.01 0.00 0.00 0.01 0.01 0.01 0.01 0.01 0.01 0.01
MSLP
1014.82 1015.06 1015.18 1015.21 1015.17 1015.09 1015.03 1015.02 1015.09 1015.25 1015.49 1015.78 1016.08 1016.34 1016.55 1016.68 1016.73 1016.72 1016.67 1016.63 1016.61 1016.66 1016.79 1017.02 1017.32 1017.70 1018.13 1018.58 1019.04 1019.48 1019.89 1020.26 1020.57 1020.85 1021.08 1021.29 1021.47 1021.63 1021.79 1021.95 1022.10 1022.25 1022.38
1014.94 1015.30 1015.52 1015.60 1015.56 1015.45 1015.32 1015.24 1015.25 1015.37 1015.60 1015.91 1016.26 1016.60 1016.88 1017.07 1017.15 1017.16 1017.10 1017.03 1016.97 1016.98 1017.07 1017.26 1017.53 1017.88 1018.28 1018.70 1019.12 1019.52 1019.89 1020.22 1020.52 1020.79 1021.04 1021.28 1021.51 1021.73 1021.94 1022.16 1022.37 1022.57 1022.76
1014.93 1015.42 1015.75 1015.89 1015.88 1015.75 1015.58 1015.43 1015.38 1015.47 1015.68 1016.01 1016.40 1016.80 1017.14 1017.40 1017.53 1017.57 1017.53 1017.45 1017.38 1017.37 1017.43 1017.59 1017.83 1018.13 1018.48 1018.84 1019.20 1019.54 1019.85 1020.14 1020.41 1020.68 1020.94 1021.21 1021.49 1021.77 1022.05 1022.33 1022.61 1022.87 1023.12
1014.77 1015.38 1015.81 1016.04 1016.07 1015.95 1015.76 1015.59 1015.50 1015.55 1015.76 1016.10 1016.52 1016.97 1017.37 1017.68 1017.88 1017.96 1017.95 1017.89 1017.83 1017.81 1017.87 1018.00 1018.21 1018.47 1018.77 1019.07 1019.36 1019.62 1019.87 1020.11 1020.34 1020.59 1020.86 1021.15 1021.47 1021.79 1022.13 1022.47 1022.79 1023.10 1023.40
1014.46 1015.16 1015.70 1016.01 1016.11 1016.04 1015.87 1015.69 1015.60 1015.64 1015.84 1016.20 1016.65 1017.13 1017.58 1017.94 1018.19 1018.31 1018.34 1018.32 1018.28 1018.29 1018.35 1018.48 1018.67 1018.90 1019.15 1019.39 1019.62 1019.82 1020.00 1020.18 1020.37 1020.60 1020.85 1021.15 1021.48 1021.83 1022.19 1022.55 1022.90 1023.24 1023.56
1014.03 1014.80 1015.42 1015.83 1016.01 1016.01 1015.89 1015.75 1015.68 1015.74 1015.96 1016.32 1016.79 1017.29 1017.77 1018.17 1018.45 1018.61 1018.68 1018.70 1018.71 1018.74 1018.83 1018.97 1019.17 1019.39 1019.61 1019.81 1019.99 1020.13 1020.26 1020.39 1020.54 1020.73 1020.96 1021.24 1021.55 1021.89 1022.24 1022.59 1022.93 1023.26 1023.58
1013.54 1014.34 1015.03 1015.52 1015.79 1015.88 1015.85 1015.78 1015.76 1015.86 1016.10 1016.48 1016.96 1017.47 1017.95 1018.36 1018.66 1018.84 1018.95 1019.00 1019.05 1019.13 1019.25 1019.43 1019.65 1019.88 1020.10 1020.29 1020.44 1020.55 1020.64 1020.73 1020.84 1020.99 1021.18 1021.42 1021.69 1021.99 1022.30 1022.61 1022.91 1023.21 1023.49
1013.05 1013.85 1014.57 1015.13 1015.49 1015.68 1015.75 1015.77 1015.82 1015.98 1016.26 1016.65 1017.13 1017.63 1018.10 1018.50 1018.80 1019.00 1019.12 1019.20 1019.29 1019.42 1019.59 1019.82 1020.07 1020.34 1020.58 1020.78 1020.93 1021.03 1021.10 1021.16 1021.24 1021.35 1021.50 1021.69 1021.91 1022.15 1022.40 1022.64 1022.88 1023.12 1023.36
1012.62 1013.39 1014.11 1014.72 1015.15 1015.43 1015.60 1015.72 1015.86 1016.08 1016.40 1016.81 1017.28 1017.77 1018.21 1018.59 1018.87 1019.06 1019.19 1019.30 1019.43 1019.60 1019.82 1020.10 1020.41 1020.72 1021.00 1021.23 1021.40 1021.51 1021.59 1021.64 1021.70 1021.79 1021.90 1022.04 1022.21 1022.38 1022.56 1022.73 1022.90 1023.08 1023.26
1012.27 1012.99 1013.69 1014.30 1014.79 1015.14 1015.40 1015.61 1015.84 1016.12 1016.49 1016.92 1017.39 1017.85 1018.28 1018.62 1018.88 1019.06 1019.20 1019.33 1019.49 1019.70 1019.98 1020.31 1020.67 1021.03 1021.35 1021.62 1021.82 1021.96 1022.05 1022.11 1022.17 1022.24 1022.33 1022.44 1022.56 1022.69 1022.81 1022.92 1023.03 1023.15 1023.28
1012.06 1012.68 1013.33 1013.92 1014.41 1014.81 1015.13 1015.42 1015.72 1016.08 1016.49 1016.95 1017.42 1017.88 1018.28 1018.61 1018.85 1019.03 1019.18 1019.33 1019.53 1019.78 1020.10 1020.48 1020.89 1021.29 1021.65 1021.96 1022.19 1022.36 1022.47 1022.55 1022.61 1022.69 1022.77 1022.87 1022.97 1023.07 1023.16 1023.23 1023.31 1023.39 1023.48
1011.96 1012.48 1013.04 1013.56 1014.03 1014.43 1014.79 1015.13 1015.50 1015.92 1016.38 1016.87 1017.37 1017.84 1018.24 1018.57 1018.83 1019.02 1019.19 1019.38 1019.61 1019.90 1020.26 1020.67 1021.11 1021.54 1021.93 1022.26 1022.51 1022.70 1022.83 1022.93 1023.01 1023.10 1023.20 1023.30 1023.40 1023.50 1023.59 1023.66 1023.72 1023.78 1023.85
1012.00 1012.39 1012.82 1013.25 1013.64 1014.01 1014.37 1014.75 1015.16 1015.63 1016.14 1016.69 1017.23 1017.73 1018.17 1018.54 1018.82 1019.06 1019.27 1019.50 1019.77 1020.10 1020.49 1020.93 1021.38 1021.82 1022.22 1022.55 1022.81 1023.01 1023.15 1023.26 1023.36 1023.47 1023.59 1023.72 1023.84 1023.96 1024.06 1024.15 1024.22 1024.28 1024.34
1012.15 1012.39 1012.67 1012.96 1013.26 1013.56 1013.88 1014.26 1014.70 1015.22 1015.79 1016.39 1017.00 1017.56 1018.07 1018.50 1018.85 1019.15 1019.43 1019.72 1020.03 1020.40 1020.81 1021.26 1021.72 1022.15 1022.53 1022.85 1023.10 1023.29 1023.44 1023.56 1023.67 1023.80 1023.94 1024.10 1024.25 1024.40 1024.54 1024.65 1024.73 1024.80 1024.86
1012.42 1012.49 1012.59 1012.72 1012.88 1013.08 1013.35 1013.70 1014.15 1014.70 1015.33 1016.00 1016.69 1017.34 1017.94 1018.46 1018.90 1019.29 1019.64 1020.00 1020.36 1020.76 1021.19 1021.64 1022.08 1022.49 1022.85 1023.15 1023.38 1023.56 1023.70 1023.82 1023.94 1024.09 1024.25 1024.43 1024.62 1024.80 1024.96 1025.09 1025.19 1025.27 1025.32
1012.78 1012.66 1012.58 1012.52 1012.52 1012.60 1012.78 1013.09 1013.54 1014.11 1014.79 1015.53 1016.31 1017.06 1017.76 1018.38 1018.93 1019.42 1019.86 1020.28 1020.70 1021.13 1021.57 1022.01 1022.43 1022.81 1023.15 1023.42 1023.63 1023.79 1023.92 1024.05 1024.18 1024.34 1024.52 1024.72 1024.92 1025.12 1025.29 1025.43 1025.53 1025.60 1025.64
1013.19 1012.89 1012.60 1012.36 1012.19 1012.13 1012.21 1012.46 1012.89 1013.47 1014.19 1015.00 1015.86 1016.71 1017.52 1018.25 1018.91 1019.49 1020.02 1020.51 1020.97 1021.42 1021.86 1022.29 1022.69 1023.05 1023.36 1023.61 1023.82 1023.98 1024.12 1024.25 1024.39 1024.56 1024.75 1024.95 1025.16 1025.36 1025.52 1025.65 1025.74 1025.79 1025.80
1013.61 1013.12 1012.65 1012.22 1011.88 1011.69 1011.67 1011.84 1012.23 1012.82 1013.57 1014.43 1015.36 1016.29 1017.20 1018.04 1018.80 1019.47 1020.06 1020.60 1021.10 1021.56 1022.01 1022.43 1022.81 1023.16 1023.46 1023.71 1023.92 1024.10 1024.26 1024.42 1024.58 1024.76 1024.95 1025.15 1025.35 1025.52 1025.67 1025.77 1025.82 1025.83 1025.81
1013.98 1013.33 1012.68 1012.09 1011.61 1011.28 1011.15 1011.26 1011.60 1012.17 1012.93 1013.83 1014.82 1015.82 1016.81 1017.73 1018.57 1019.32 1019.97 1020.55 1021.07 1021.55 1021.99 1022.39 1022.77 1023.12 1023.43 1023.70 1023.94 1024.16 1024.36 1024.55 1024.74 1024.94 1025.14 1025.33 1025.50 1025.64 1025.75 1025.80 1025.82 1025.79 1025.72
1014.25 1013.47 1012.69 1011.96 1011.35 1010.91 1010.69 1010.72 1011.02 1011.56 1012.32 1013.23 1014.25 1015.32 1016.36 1017.36 1018.26 1019.06 1019.76 1020.36 1020.90 1021.38 1021.82 1022.22 1022.60 1022.96 1023.29 1023.60 1023.89 1024.16 1024.41 1024.65 1024.88 1025.10 1025.30 1025.48 1025.62 1025.73 1025.79 1025.80 1025.77 1025.71 1025.61
1014.38 1013.51 1012.63 1011.81 1011.10 1010.58 1010.28 1010.24 1010.49 1011.00 1011.74 1012.66 1013.70 1014.80 1015.89 1016.93 1017.89 1018.73 1019.46 1020.10 1020.65 1021.13 1021.57 1021.97 1022.36 1022.73 1023.10 1023.45 1023.80 1024.12 1024.44 1024.72 1024.99 1025.23 1025.43 1025.60 1025.72 1025.79 1025.81 1025.79 1025.73 1025.64 1025.53
1014.36 1013.44 1012.52 1011.64 1010.87 1010.28 1009.92 1009.83 1010.03 1010.51 1011.22 1012.14 1013.19 1014.31 1015.44 1016.52 1017.51 1018.39 1019.16 1019.82 1020.38 1020.87 1021.31 1021.72 1022.12 1022.52 1022.91 1023.31 1023.70 1024.08 1024.44 1024.77 1025.06 1025.31 1025.52 1025.67 1025.76 1025.81 1025.81 1025.76 1025.69 1025.60 1025.51
1014.20 1013.28 1012.34 1011.45 1010.65 1010.03 1009.63 1009.50 1009.66 1010.09 1010.79 1011.69 1012.74 1013.87 1015.03 1016.14 1017.17 1018.10 1018.90 1019.58 1020.16 1020.67 1021.12 1021.54 1021.95 1022.36 1022.78 1023.20 1023.63 1024.04 1024.43 1024.78 1025.09 1025.34 1025.53 1025.67 1025.75 1025.78 1025.77 1025.73 1025.67 1025.60 1025.54
1013.93 1013.05 1012.14 1011.25 1010.46 1009.83 1009.41 1009.24 1009.37 1009.77 1010.44 1011.32 1012.36 1013.50 1014.68 1015.83 1016.90 1017.86 1018.70 1019.42 1020.03 1020.55 1021.02 1021.45 1021.87 1022.29 1022.72 1023.16 1023.59 1024.01 1024.41 1024.76 1025.05 1025.29 1025.47 1025.59 1025.66 1025.69 1025.68 1025.67 1025.65 1025.63 1025.62
1013.61 1012.78 1011.92 1011.07 1010.30 1009.68 1009.25 1009.06 1009.16 1009.53 1010.16 1011.02 1012.05 1013.20 1014.39 1015.56 1016.67 1017.67 1018.56 1019.31 1019.96 1020.52 1021.00 1021.45 1021.87 1022.30 1022.72 1023.15 1023.58 1023.98 1024.36 1024.69 1024.96 1025.18 1025.33 1025.44 1025.50 1025.53 1025.56 1025.58 1025.61 1025.66 1025.73
1013.25 1012.49 1011.69 1010.90 1010.16 1009.56 1009.13 1008.93 1009.00 1009.34 1009.94 1010.78 1011.79 1012.92 1014.12 1015.31 1016.45 1017.49 1018.42 1019.22 1019.91 1020.49 1021.01 1021.47 1021.90 1022.32 1022.74 1023.15 1023.55 1023.93 1024.27 1024.57 1024.81 1025.00 1025.14 1025.23 1025.30 1025.36 1025.41 1025.49 1025.59 1025.71 1025.85
Thickness
5740 5740 5737 5735 5732 5730 5727 5723 5720 5719 5717 5714 5712 5710 5708 5709 5709 5710 5709 5709 5709 5709 5709 5708 5706 5705 5703 5702 5701 5700 5699 5698 5699 5696 5693 5695 5698 5697 5697 5698 5698 5697 5697
5738 5737 5735 5732 5730 5727 5725 5722 5720 5718 5715 5713 5712 5711 5708 5707 5707 5707 5707 5706 5707 5707 5706 5705 5703 5702 5700 5699 5698 5697 5695 5695 5697 5693 5689 5684 5685 5690 5693 5694 5693 5692 5692
5737 5734 5732 5730 5728 5725 5724 5722 5720 5717 5715 5713 5711 5709 5707 5705 5704 5703 5703 5704 5704 5704 5703 5703 5702 5700 5699 5696 5696 5695 5693 5691 5693 5694 5689 5683 5678 5681 5685 5688 5688 5688 5688
5740 5735 5732 5729 5726 5725 5724 5722 5720 5717 5714 5712 5709 5705 5702 5699 5701 5701 5702 5703 5703 5702 5701 5701 5700 5699 5698 5696 5695 5694 5693 5691 5688 5691 5693 5691 5688 5681 5676 5680 5683 5684 5683
5741 5736 5733 5730 5728 5726 5723 5721 5719 5716 5713 5711 5708 5705 5703 5702 5702 5702 5701 5700 5700 5700 5699 5698 5698 5697 5696 5695 5694 5693 5692 5691 5688 5688 5688 5688 5688 5687 5679 5672 5675 5677 5679
5742 5738 5736 5732 5728 5725 5722 5719 5716 5713 5712 5710 5708 5706 5703 5702 5700 5698 5698 5697 5698 5698 5698 5697 5696 5695 5694 5693 5692 5691 5690 5689 5688 5687 5687 5684 5682 5680 5679 5674 5672 5671 5673
5742 5738 5734 5729 5725 5722 5719 5717 5714 5711 5711 5710 5708 5706 5704 5703 5700 5699 5697 5696 5695 5695 5695 5695 5694 5693 5692 5691 5690 5689 5688 5688 5686 5685 5684 5684 5682 5682 5680 5675 5672 5670 5670
5743 5738 5735 5730 5726 5722 5719 5716 5713 5711 5710 5709 5708 5707 5705 5703 5702 5701 5699 5697 5696 5695 5695 5694 5693 5692 5691 5690 5688 5687 5687 5686 5685 5684 5683 5681 5681 5680 5678 5675 5671 5666 5666
5742 5739 5735 5731 5727 5723 5719 5717 5714 5711 5710 5709 5707 5706 5705 5704 5702 5701 5700 5699 5697 5696 5695 5693 5691 5690 5689 5688 5687 5685 5684 5684 5682 5681 5681 5679 5679 5678 5677 5676 5673 5667 5660
5742 5738 5735 5731 5728 5725 5721 5719 5716 5712 5711 5709 5708 5706 5705 5704 5702 5701 5699 5698 5697 5696 5694 5692 5690 5688 5687 5686 5685 5683 5682 5681 5679 5679 5678 5677 5676 5676 5675 5674 5673 5670 5665
5739 5736 5733 5731 5728 5725 5722 5718 5715 5712 5710 5709 5707 5705 5704 5703 5702 5700 5698 5697 5696 5694 5693 5691 5689 5687 5685 5684 5682 5681 5680 5678 5677 5677 5676 5674 5674 5672 5672 5671 5669 5667 5664
5738 5736 5732 5729 5726 5723 5721 5718 5716 5713 5710 5709 5707 5705 5703 5702 5700 5698 5698 5697 5695 5694 5693 5691 5688 5686 5684 5683 5681 5678 5678 5676 5675 5674 5673 5672 5672 5670 5669 5667 5665 5664 5662
5735 5732 5729 5727 5724 5722 5721 5719 5717 5713 5711 5709 5706 5704 5702 5700 5698 5697 5697 5695 5694 5692 5691 5690 5687 5685 5683 5681 5680 5678 5676 5675 5674 5673 5671 5670 5669 5666 5665 5664 5662 5661 5660
5730 5728 5724 5723 5722 5721 5720 5719 5716 5714 5712 5709 5705 5702 5701 5699 5697 5696 5695 5694 5692 5691 5689 5688 5686 5684 5682 5680 5678 5677 5675 5674 5673 5672 5670 5668 5667 5664 5663 5661 5659 5658 5655
5727 5725 5722 5721 5720 5719 5719 5718 5716 5714 5712 5708 5703 5701 5700 5698 5696 5694 5693 5691 5690 5689 5687 5685 5684 5682 5680 5678 5676 5674 5673 5671 5670 5669 5667 5666 5664 5662 5660 5658 5655 5653 5650
5723 5723 5722 5721 5719 5718 5717 5716 5715 5713 5711 5707 5703 5700 5698 5696 5693 5691 5690 5688 5687 5686 5684 5682 5680 5678 5677 5675 5674 5671 5670 5668 5666 5664 5663 5662 5660 5659 5657 5655 5653 5651 5647
5721 5721 5721 5719 5719 5718 5718 5714 5714 5713 5709 5705 5702 5699 5696 5693 5691 5689 5687 5684 5683 5682 5680 5678 5677 5674 5673 5672 5670 5669 5666 5665 5663 5662 5660 5659 5658 5656 5653 5651 5650 5647 5646
5719 5719 5720 5719 5719 5720 5718 5716 5713 5711 5707 5703 5700 5697 5694 5691 5689 5686 5683 5681 5680 5678 5677 5675 5674 5671 5669 5668 5666 5665 5663 5661 5660 5659 5657 5655 5653 5652 5650 5648 5645 5642 5641
5718 5718 5718 5718 5717 5716 5715 5712 5709 5706 5703 5700 5698 5695 5692 5689 5685 5682 5680 5679 5677 5676 5674 5673 5671 5668 5666 5664 5662 5660 5658 5657 5656 5656 5654 5652 5649 5647 5645 5642 5639 5637 5635
5715 5715 5714 5714 5712 5712 5712 5708 5704 5702 5699 5697 5696 5694 5691 5687 5684 5681 5678 5677 5675 5673 5672 5670 5668 5666 5663 5661 5658 5656 5654 5652 5651 5650 5649 5647 5644 5642 5639 5636 5634 5630 5629
5709 5709 5708 5706 5706 5707 5706 5702 5700 5698 5697 5695 5693 5690 5688 5685 5682 5679 5677 5674 5672 5670 5668 5666 5664 5663 5661 5657 5655 5652 5649 5648 5646 5645 5643 5641 5639 5637 5635 5632 5628 5626 5624
5702 5701 5699 5698 5700 5701 5699 5696 5694 5695 5694 5692 5688 5686 5684 5682 5680 5676 5673 5671 5668 5664 5662 5660 5658 5658 5656 5654 5650 5648 5645 5644 5642 5640 5638 5635 5634 5631 5629 5625 5623 5621 5618
5694 5693 5692 5691 5692 5694 5693 5689 5689 5690 5688 5686 5683 5681 5679 5677 5674 5671 5667 5665 5662 5659 5657 5655 5653 5652 5652 5650 5647 5644 5641 5639 5636 5634 5632 5630 5627 5624 5621 5618 5616 5613 5609
5685 5685 5684 5683 5683 5685 5685 5685 5685 5684 5682 5679 5677 5675 5672 5670 5668 5665 5662 5659 5656 5653 5652 5650 5648 5647 5645 5643 5641 5638 5635 5633 5630 5627 5624 5622 5619 5616 5614 5611 5608 5605 5602
5677 5677 5676 5674 5675 5677 5677 5678 5678 5677 5675 5673 5670 5669 5666 5663 5661 5658 5656 5654 5652 5651 5647 5645 5644 5642 5639 5638 5636 5633 5630 5627 5624 5620 5617 5613 5610 5608 5605 5603 5600 5598 5595
5669 5668 5667 5667 5668 5669 5669 5670 5670 5669 5668 5665 5664 5662 5660 5657 5655 5651 5648 5647 5646 5645 5644 5642 5639 5638 5636 5633 5630 5627 5624 5621 5618 5614 5610 5607 5604 5601 5599 5596 5593 5590 5587